�������l�o���
Date,Time,MP-1(��Sv/h),MP-2(��Sv/h),MP-3(��Sv/h),MP-4(��Sv/h),MP-5(��Sv/h),MP-6(��Sv/h),MP-7(��Sv/h),MP-8(��Sv/h),����,����(m/s),���J
2020/07/07,00:00,0.651,0.917,0.594,1.113,0.796,0.390,0.660,0.622,��,5.3,�L
2020/07/07,00:10,0.651,0.916,0.596,1.115,0.796,0.391,0.660,0.623,��쐼,5.2,��
2020/07/07,00:20,0.653,0.916,0.595,1.115,0.798,0.390,0.660,0.623,��,4.5,��
2020/07/07,00:30,0.651,0.915,0.593,1.115,0.798,0.390,0.660,0.624,��,3.9,��
2020/07/07,00:40,0.652,0.915,0.594,1.115,0.797,0.388,0.661,0.622,��,5.9,��
2020/07/07,00:50,0.654,0.915,0.594,1.114,0.798,0.390,0.661,0.622,��,5.6,��
2020/07/07,01:00,0.652,0.915,0.593,1.116,0.798,0.389,0.662,0.622,��,5.2,��
2020/07/07,01:10,0.651,0.915,0.594,1.115,0.798,0.390,0.662,0.623,��,4.4,��
2020/07/07,01:20,0.652,0.916,0.594,1.118,0.799,0.390,0.661,0.624,��,4.8,�L
2020/07/07,01:30,0.651,0.917,0.594,1.116,0.798,0.389,0.662,0.623,��,5.1,�L
2020/07/07,01:40,0.651,0.916,0.595,1.116,0.797,0.392,0.663,0.622,��,6.3,�L
2020/07/07,01:50,0.652,0.916,0.594,1.117,0.797,0.390,0.661,0.623,��,5.6,��
2020/07/07,02:00,0.651,0.916,0.596,1.116,0.797,0.390,0.662,0.625,��,6.0,��
2020/07/07,02:10,0.652,0.917,0.594,1.115,0.797,0.390,0.662,0.623,��,3.9,�L
2020/07/07,02:20,0.652,0.917,0.595,1.118,0.798,0.390,0.662,0.624,��,3.7,�L
2020/07/07,02:30,0.652,0.917,0.594,1.115,0.799,0.392,0.663,0.624,��,4.2,�L
2020/07/07,02:40,0.651,0.918,0.596,1.117,0.799,0.389,0.662,0.623,��,4.5,�L
2020/07/07,02:50,0.652,0.918,0.595,1.115,0.800,0.391,0.662,0.622,��,4.7,��
2020/07/07,03:00,0.652,0.918,0.596,1.117,0.800,0.391,0.660,0.624,��,4.9,�L
2020/07/07,03:10,0.651,0.917,0.595,1.119,0.799,0.391,0.665,0.624,��,4.7,��
2020/07/07,03:20,0.653,0.919,0.596,1.119,0.800,0.390,0.662,0.624,��,4.7,��
2020/07/07,03:30,0.654,0.919,0.594,1.120,0.800,0.391,0.662,0.624,��,5.4,�L
2020/07/07,03:40,0.653,0.918,0.596,1.118,0.801,0.391,0.663,0.623,��,7.0,�L
2020/07/07,03:50,0.653,0.921,0.596,1.119,0.800,0.390,0.664,0.624,��,5.2,�L
2020/07/07,04:00,0.653,0.920,0.598,1.118,0.802,0.392,0.663,0.623,��,6.1,�L
2020/07/07,04:10,0.653,0.920,0.595,1.118,0.801,0.390,0.662,0.625,��,5.8,�L
2020/07/07,04:20,0.655,0.921,0.597,1.121,0.801,0.391,0.663,0.624,��,7.4,�L
2020/07/07,04:30,0.653,0.920,0.597,1.117,0.801,0.391,0.661,0.623,��,6.8,�L
2020/07/07,04:40,0.654,0.919,0.596,1.121,0.801,0.391,0.663,0.624,��,6.7,�L
2020/07/07,04:50,0.650,0.922,0.595,1.116,0.800,0.389,0.661,0.625,��쐼,6.7,�L
2020/07/07,05:00,0.652,0.921,0.596,1.117,0.801,0.389,0.662,0.623,��쐼,5.4,��
2020/07/07,05:10,0.650,0.920,0.597,1.116,0.800,0.389,0.662,0.625,��쐼,2.0,��
2020/07/07,05:20,0.653,0.920,0.596,1.118,0.800,0.389,0.661,0.625,�쐼,0.8,��
2020/07/07,05:30,0.652,0.919,0.597,1.120,0.801,0.389,0.663,0.625,��쐼,1.2,��
2020/07/07,05:40,0.651,0.920,0.596,1.120,0.799,0.390,0.662,0.624,��쓌,2.3,��
2020/07/07,05:50,0.652,0.920,0.597,1.118,0.801,0.388,0.662,0.623,��,6.2,��
2020/07/07,06:00,0.653,0.922,0.596,1.118,0.800,0.388,0.662,0.623,��쓌,7.6,��
2020/07/07,06:10,0.654,0.919,0.596,1.115,0.801,0.389,0.663,0.623,��,5.9,��
2020/07/07,06:20,0.652,0.919,0.596,1.119,0.800,0.388,0.663,0.624,��,4.2,��
2020/07/07,06:30,0.653,0.918,0.594,1.119,0.801,0.388,0.661,0.627,��,4.5,��
2020/07/07,06:40,0.651,0.920,0.596,1.121,0.799,0.389,0.662,0.625,��,4.8,��
2020/07/07,06:50,0.654,0.920,0.594,1.118,0.800,0.389,0.662,0.624,��,5.6,�L
2020/07/07,07:00,0.654,0.919,0.595,1.118,0.800,0.388,0.661,0.624,��,4.3,��
2020/07/07,07:10,0.652,0.919,0.597,1.121,0.800,0.387,0.661,0.625,��,3.6,��
2020/07/07,07:20,0.651,0.919,0.595,1.118,0.798,0.388,0.662,0.623,��쐼,3.0,��
2020/07/07,07:30,0.650,0.917,0.596,1.120,0.799,0.388,0.662,0.624,��쐼,2.3,��
2020/07/07,07:40,0.651,0.921,0.596,1.118,0.800,0.388,0.663,0.623,��,2.0,��
2020/07/07,07:50,0.650,0.919,0.595,1.118,0.800,0.389,0.664,0.624,��쓌,2.3,��
2020/07/07,08:00,0.652,0.918,0.595,1.120,0.800,0.388,0.662,0.624,��,3.4,��
2020/07/07,08:10,0.652,0.920,0.594,1.120,0.798,0.388,0.661,0.624,��,4.4,��
2020/07/07,08:20,0.653,0.920,0.596,1.119,0.800,0.388,0.662,0.624,��,5.6,��
2020/07/07,08:30,0.652,0.918,0.594,1.119,0.799,0.389,0.662,0.626,��,5.0,��
2020/07/07,08:40,0.654,0.919,0.596,1.119,0.800,0.387,0.663,0.624,��,2.6,��
2020/07/07,08:50,0.653,0.916,0.596,1.121,0.800,0.387,0.664,0.624,��,2.0,��
2020/07/07,09:00,0.654,0.916,0.596,1.118,0.801,0.387,0.662,0.625,��쐼,3.2,��
2020/07/07,09:10,0.653,0.917,0.596,1.120,0.800,0.389,0.663,0.625,��쐼,4.9,�L
2020/07/07,09:20,0.654,0.917,0.596,1.120,0.802,0.388,0.664,0.624,��,4.2,�L
2020/07/07,09:30,0.653,0.917,0.595,1.121,0.801,0.388,0.665,0.626,��,4.7,��
2020/07/07,09:40,0.654,0.916,0.598,1.121,0.801,0.388,0.664,0.623,��,6.1,�L
2020/07/07,09:50,0.656,0.917,0.596,1.119,0.800,0.387,0.663,0.624,��,5.0,�L
2020/07/07,10:00,0.656,0.915,0.597,1.121,0.802,0.388,0.664,0.626,��,4.0,�L
2020/07/07,10:10,0.651,0.919,0.595,1.123,0.802,0.388,0.665,0.624,��,4.4,��
2020/07/07,10:20,0.652,0.917,0.598,1.123,0.803,0.388,0.664,0.623,��쓌,5.0,��
2020/07/07,10:30,0.652,0.919,0.596,1.122,0.804,0.388,0.664,0.624,��,5.0,��
2020/07/07,10:40,0.655,0.921,0.603,1.121,0.805,0.387,0.664,0.626,��,3.3,��
2020/07/07,10:50,0.655,0.918,0.597,1.119,0.802,0.389,0.664,0.624,��,4.7,��
2020/07/07,11:00,0.655,0.923,0.600,1.123,0.805,0.389,0.664,0.624,��,5.5,��
2020/07/07,11:10,0.656,0.919,0.602,1.123,0.804,0.388,0.666,0.627,��,4.4,�L
2020/07/07,11:20,0.657,0.921,0.600,1.122,0.804,0.388,0.665,0.624,��,3.7,�L
2020/07/07,11:30,0.658,0.923,0.601,1.124,0.806,0.390,0.666,0.625,��쐼,3.3,��
2020/07/07,11:40,0.657,0.925,0.599,1.122,0.808,0.389,0.666,0.626,��,3.7,��
2020/07/07,11:50,0.656,0.925,0.601,1.121,0.805,0.390,0.666,0.624,��,4.1,��
2020/07/07,12:00,0.658,0.924,0.601,1.124,0.807,0.388,0.665,0.624,��,3.4,��
2020/07/07,12:10,0.655,0.928,0.601,1.121,0.806,0.390,0.666,0.626,��,3.2,��
2020/07/07,12:20,0.652,0.928,0.601,1.125,0.807,0.392,0.663,0.624,��쐼,2.8,�L
2020/07/07,12:30,0.654,0.929,0.600,1.125,0.805,0.392,0.664,0.626,��,3.6,�L
2020/07/07,12:40,0.654,0.928,0.599,1.124,0.807,0.391,0.665,0.626,��,3.9,�L
2020/07/07,12:50,0.655,0.928,0.600,1.125,0.807,0.392,0.665,0.626,��,4.5,�L
2020/07/07,13:00,0.655,0.926,0.599,1.125,0.806,0.392,0.665,0.624,��,4.4,�L
2020/07/07,13:10,0.656,0.929,0.599,1.124,0.807,0.393,0.664,0.626,��,4.2,�L
2020/07/07,13:20,0.656,0.928,0.601,1.127,0.808,0.393,0.666,0.624,��,3.4,�L
2020/07/07,13:30,0.658,0.925,0.602,1.126,0.808,0.394,0.664,0.624,��,3.0,�L
2020/07/07,13:40,0.657,0.925,0.601,1.126,0.809,0.394,0.664,0.626,��쐼,2.2,�L
2020/07/07,13:50,0.654,0.923,0.602,1.125,0.807,0.392,0.664,0.624,��,1.7,�L
2020/07/07,14:00,0.654,0.925,0.601,1.124,0.807,0.393,0.664,0.625,��쐼,1.7,�L
2020/07/07,14:10,0.655,0.922,0.603,1.127,0.806,0.392,0.663,0.626,��쐼,2.2,�L
2020/07/07,14:20,0.655,0.925,0.602,1.126,0.805,0.392,0.665,0.626,�쐼,2.0,�L
2020/07/07,14:30,0.657,0.925,0.601,1.126,0.805,0.394,0.664,0.625,�쐼,1.7,�L
2020/07/07,14:40,0.656,0.924,0.601,1.125,0.807,0.394,0.664,0.627,���쐼,2.0,�L
2020/07/07,14:50,0.656,0.924,0.602,1.124,0.809,0.394,0.665,0.626,���쐼,1.5,�L
2020/07/07,15:00,0.654,0.925,0.603,1.125,0.807,0.394,0.665,0.626,��,1.5,�L
2020/07/07,15:10,0.655,0.925,0.601,1.124,0.807,0.393,0.663,0.626,���k��,1.2,�L
2020/07/07,15:20,0.656,0.922,0.600,1.125,0.808,0.394,0.665,0.625,�k��,0.8,��
2020/07/07,15:30,0.656,0.926,0.601,1.124,0.807,0.394,0.665,0.626,���k��,0.8,��
2020/07/07,15:40,0.656,0.925,0.600,1.127,0.807,0.392,0.664,0.625,��,0.9,�L
2020/07/07,15:50,0.657,0.926,0.599,1.127,0.807,0.393,0.665,0.626,��,1.7,�L
2020/07/07,16:00,0.654,0.921,0.599,1.123,0.807,0.392,0.666,0.626,��,2.6,��
2020/07/07,16:10,0.654,0.924,0.598,1.125,0.808,0.391,0.664,0.623,��,3.4,��
2020/07/07,16:20,0.656,0.924,0.598,1.124,0.807,0.391,0.664,0.624,��,3.5,��
2020/07/07,16:30,0.655,0.924,0.600,1.123,0.807,0.390,0.665,0.625,��쐼,5.3,�L
2020/07/07,16:40,0.654,0.924,0.600,1.125,0.807,0.391,0.663,0.626,��쐼,4.8,�L
2020/07/07,16:50,0.656,0.925,0.600,1.125,0.806,0.390,0.664,0.624,��,5.3,�L
2020/07/07,17:00,0.655,0.925,0.599,1.126,0.806,0.392,0.664,0.624,��쐼,5.4,��
2020/07/07,17:10,0.655,0.925,0.602,1.127,0.805,0.392,0.664,0.624,��쐼,6.5,��
2020/07/07,17:20,0.654,0.926,0.600,1.124,0.805,0.391,0.665,0.624,��쐼,6.1,��
2020/07/07,17:30,0.656,0.927,0.603,1.123,0.807,0.391,0.665,0.626,��쐼,6.0,��
2020/07/07,17:40,0.656,0.926,0.603,1.126,0.806,0.391,0.664,0.625,��,6.1,��
2020/07/07,17:50,0.655,0.928,0.602,1.125,0.807,0.391,0.664,0.627,��,6.2,��
2020/07/07,18:00,0.654,0.927,0.602,1.125,0.806,0.391,0.666,0.626,��,6.4,��
2020/07/07,18:10,0.655,0.926,0.601,1.127,0.807,0.390,0.666,0.626,��,5.5,��
2020/07/07,18:20,0.656,0.926,0.601,1.128,0.806,0.391,0.667,0.627,��쐼,4.0,��
2020/07/07,18:30,0.657,0.925,0.602,1.127,0.806,0.391,0.668,0.628,��쐼,3.5,�L
2020/07/07,18:40,0.656,0.926,0.602,1.125,0.808,0.392,0.667,0.626,��쐼,3.3,�L
2020/07/07,18:50,0.658,0.928,0.601,1.129,0.808,0.391,0.668,0.627,�쐼,2.9,��
2020/07/07,19:00,0.654,0.926,0.602,1.127,0.809,0.391,0.666,0.626,�쐼,2.3,��
2020/07/07,19:10,0.657,0.925,0.602,1.128,0.809,0.392,0.665,0.626,��쐼,2.6,�L
2020/07/07,19:20,0.657,0.926,0.603,1.126,0.809,0.391,0.665,0.626,��쐼,2.5,�L
2020/07/07,19:30,0.656,0.926,0.603,1.128,0.809,0.390,0.668,0.627,��,2.6,�L
2020/07/07,19:40,0.658,0.926,0.604,1.130,0.809,0.389,0.666,0.628,��,2.9,�L
2020/07/07,19:50,0.658,0.926,0.602,1.127,0.806,0.390,0.666,0.627,��,3.4,�L
2020/07/07,20:00,0.656,0.926,0.602,1.125,0.809,0.392,0.665,0.626,��쐼,3.5,��
2020/07/07,20:10,0.657,0.929,0.602,1.127,0.808,0.392,0.666,0.624,��쐼,3.7,��
2020/07/07,20:20,0.659,0.929,0.601,1.129,0.808,0.391,0.665,0.628,��쐼,3.5,��
2020/07/07,20:30,0.659,0.929,0.604,1.126,0.809,0.391,0.666,0.627,��,2.6,��
2020/07/07,20:40,0.658,0.929,0.602,1.128,0.807,0.391,0.666,0.628,��,4.6,��
2020/07/07,20:50,0.657,0.929,0.603,1.126,0.811,0.390,0.667,0.627,��쐼,4.2,��
2020/07/07,21:00,0.658,0.929,0.603,1.127,0.807,0.393,0.668,0.628,�쐼,4.0,��
2020/07/07,21:10,0.657,0.928,0.602,1.129,0.807,0.393,0.665,0.629,��쐼,4.7,�L
2020/07/07,21:20,0.656,0.929,0.604,1.127,0.808,0.391,0.666,0.629,��쐼,5.2,�L
2020/07/07,21:30,0.658,0.929,0.603,1.128,0.808,0.393,0.667,0.629,��쐼,4.6,�L
2020/07/07,21:40,0.658,0.929,0.602,1.129,0.810,0.391,0.668,0.629,�쐼,3.6,�L
2020/07/07,21:50,0.658,0.929,0.603,1.128,0.809,0.392,0.667,0.626,��쐼,3.0,�L
2020/07/07,22:00,0.656,0.930,0.603,1.128,0.810,0.392,0.667,0.628,��쐼,2.8,�L
2020/07/07,22:10,0.656,0.926,0.604,1.125,0.809,0.392,0.666,0.629,�쐼,2.9,�L
2020/07/07,22:20,0.656,0.927,0.604,1.128,0.808,0.392,0.667,0.629,���쐼,3.2,�L
2020/07/07,22:30,0.658,0.924,0.603,1.130,0.806,0.392,0.668,0.627,��,1.5,�L
2020/07/07,22:40,0.656,0.925,0.603,1.130,0.809,0.392,0.667,0.627,��,2.2,�L
2020/07/07,22:50,0.657,0.925,0.603,1.127,0.809,0.392,0.666,0.627,���쐼,2.2,�L
2020/07/07,23:00,0.657,0.924,0.602,1.126,0.807,0.393,0.667,0.625,��,2.2,�L
2020/07/07,23:10,0.659,0.922,0.601,1.126,0.808,0.393,0.664,0.627,��,5.5,�L
2020/07/07,23:20,0.655,0.924,0.600,1.126,0.807,0.392,0.664,0.626,���쐼,5.4,�L
2020/07/07,23:30,0.654,0.915,0.600,1.123,0.802,0.393,0.665,0.625,��,5.4,�L
2020/07/07,23:40,0.651,0.914,0.598,1.121,0.800,0.391,0.664,0.625,���k��,4.5,�L
2020/07/07,23:50,0.654,0.914,0.597,1.122,0.800,0.390,0.663,0.625,��,3.6,�L
